Bangkok, Thailand

05:52 AM +07 on Januari 17, 2019 (GMT +0700)
Parkway Chalet | | Change Station

Elev 5 ft 13.79 °N, 100.73 °E | Updated 7 seconds ago

Klart
Klart
76.1 °F
Feels Like 75 °F
N
0
Vind Växlande Vind from O/NO
Gusts 0.0 miles/tim

Idag
High -- | Low -- °F
--% Chance of Precip.
Yesterday
High -- | Low -- °F
Precip. -- tum
Lufttryck 29.86 tum
Sikt 5.6 miles
Molnigt Few 4000 ft
Värmeindex 75 °F
Daggpunkt 75 °F
Luftfuktighet 97%
Rainfall 0.00 tum
Snow Depth Not available.
6:44 AM 6:09 PM
Andra kvarteret, 77% visible
METAR VTBD 162230Z VRB02KT 9000 FEW040 25/21 Q1011 NOSIG
Lufttryck 29.86 tum
Sikt 5.6 miles
Molnigt Few 4000 ft
Värmeindex 75 °F
Daggpunkt 75 °F
Luftfuktighet 97%
Rainfall 0.00 tum
Snow Depth Not available.
6:44 AM 6:09 PM
Andra kvarteret, 77% visible
METAR VTBD 162230Z VRB02KT 9000 FEW040 25/21 Q1011 NOSIG

Get Severe Weather Alerts

Thanks for signing up!

Be on the lookout for a verification email in your inbox.

You'll start receiving the daily forecast at 6 AM.

×

10-Day Weather Forecast

No radar image for this location.
×

Almanac

Astronomi

Jan. 17, 2019 Rise Set
Actual Time
Civil Twilight
Nautical Twilight
Astronomical Twilight
Månen
Length Of Visible Light
Dagens längd
Tomorrow will be .
, % of the Moon is Illuminated

Today's Extremes

Country Highs Country Lows

Community

WunderPhotos

Category 6

Welcome to Category 6. This is the collective home for Weather Underground's featured writeups by Dr. Jeff Masters (right), Bob Henson (left), Chris Burt, and other regular contributors.

Nearby

Air Quality

  Air Quality AQ Index Pollutant
Not available.

Snödjup

Station Depth Elevation

Earthquake Activity

Stad Distance Mag. Time & Date
Minimum magnitude displayed is 2.5.

Coastal Water Temperatures

Plats Temperatur

Stations

Nearby Weather Stations

Station Location Temp Vindavkylning Daggpunkt Luftfuktighet Vind Precip. Elev Uppdaterad Type